Regional Weather Roundup
Issued by NWS Northern Indiana

Home | Current Version | Previous Version | Graphics & Text | Print | Product List | Glossary On
Versions: 1 2 3 4 5 6 7 8 9 10 11 12 13 14 15 16 17 18 19 20 21 22 23 24 25 26 27 28 29 30 31 32 33 34 35 36 37 38 39 40 41 42 43 44 45 46 47 48 49 50
085
ASUS43 KIWX 280800
RWRIWX

KIWX WEATHER ROUNDUP
NATIONAL WEATHER SERVICE NORTHERN INDIANA
300 AM EST TUE FEB 28 2017

NOTE: "FAIR" INDICATES FEW OR NO CLOUDS BELOW 12,000 FEET WITH NO
SIGNIFICANT WEATHER AND/OR OBSTRUCTIONS TO VISIBILITY.

* THESE STATIONS ARE NOT UNDER NWS QUALITY CONTROL. THEY ALSO MAY NOT
  REPORT WEATHER SUCH AS PRECIPITATION OR FOG.

INZ001>027-280900-
NORTHERN INDIANA

CITY           SKY/WX    TMP DP  RH WIND       PRES   REMARKS
KNOX*          CLOUDY    43  28  56 S10G17    30.03S
SOUTH BEND     LGT RAIN  43  40  89 SE12      30.03F
GOSHEN         CLOUDY    43  38  82 SE10      30.06F
ANGOLA*        PTCLDY    39  34  81 SE8       30.09F
FORT WAYNE     CLOUDY    42  39  89 E12       30.05F
PERU/GRISSOM   CLOUDY    45  43  93 VRB3      30.07R

$$
INZ028>050-280900-
CENTRAL INDIANA

CITY           SKY/WX    TMP DP  RH WIND       PRES   REMARKS
LAFAYETTE      RAIN      46  42  86 E8        30.03R
KOKOMO*        CLOUDY    45  40  82 SE7       30.05F
MUNCIE*        CLOUDY    48  40  73 S9        30.05F
INDIANAPOLIS   CLOUDY    46  40  79 SE12      30.05S

$$
MIZ043>046-050>051-056>058-064>065-071>073-077>080-280900-
SOUTHWEST LOWER MICHIGAN

CITY           SKY/WX    TMP DP  RH WIND       PRES   REMARKS
BATTLE CREEK   PTCLDY    40  38  93 SE8       30.09F
BENTON HARBOR  CLOUDY    45  39  79 SE12      30.01F
COLDWATER*     CLOUDY    40  40 100 SE9       30.09F FOG
HILLSDALE*     CLOUDY    37  37 100 SE8       30.11F FOG
HOLLAND        CLOUDY    43  37  79 SE9       30.05F
GRAND RAPIDS   MOCLDY    40  36  86 SE7       30.07F
KALAMAZOO      MOCLDY    41  37  86 SE5       30.08F FOG
STURGIS*       PTCLDY    40  39  97 SE8       30.07F FOG
THREE RIVERS*  MOCLDY    41  39  91 SE6       30.08F

$$
OHZ001>008-015>018-024>025-280900-
NORTHWEST OHIO

CITY           SKY/WX    TMP DP  RH WIND       PRES   REMARKS
DEFIANCE       CLOUDY    40  38  93 SE5       30.13F
FINDLAY        MOCLDY    41  37  86 SE7       30.13F
TOLEDO EXPRESS MOCLDY    38  38 100 SE3       30.14F FOG
TOLEDO METCALF CLOUDY    40  39  97 SE7       30.16F FOG
LIMA           CLOUDY    43  40  89 S14       30.12F

$$
AND FOR LAKE MICHIGAN COASTAL AND OPEN LAKE BUOY OBSERVATIONS

STATION/POSITION TEMP    WIND        PRES    VSBY  WAVE
                 AIR SEA DIR/SP/G                  HT/PER
                 (F)     (DEG/KT/KT) (MB)    (MI)  (FT/S)
CALUMET HARBOR    46     150/  9/ 14 1014.6F
MICHIGAN CITY     45     120/ 13/ 17   N/A
BURNS HARBOR      46     150/  7/ 14 1016.3F

$$
&&




USA.gov is the U.S. government's official web portal to all federal, state and local government web resources and services.